This is the latest recevied weather packets stored in our database for station/object KO4DYK. If no packets are shown the sender has not sent any weather packets the latest 10 day(s).
| Time | Temp. | Humidity | Pressure | Rain* | Wind** | Luminosity | Snow |
|---|---|---|---|---|---|---|---|
| 1777683471 | 12.78° C | 72% | 1020.4 hPa | 0 mm | - | 0 W/m² | - |
| 1777683168 | 13.33° C | 72% | 1020.3 hPa | 0 mm | - | 0 W/m² | - |
| 1777682865 | 13.33° C | 71% | 1020.1 hPa | 0 mm | - | 0 W/m² | - |
| 1777682561 | 13.33° C | 69% | 1020 hPa | 0 mm | - | 0 W/m² | - |
| 1777682259 | 13.89° C | 68% | 1020.1 hPa | 0 mm | - | 3 W/m² | - |
| 1777681957 | 14.44° C | 67% | 1020.2 hPa | 0 mm | - | 4 W/m² | - |
| 1777681652 | 15° C | 69% | 1020 hPa | 0 mm | - | 8 W/m² | - |
| 1777681350 | 15° C | 65% | 1019.9 hPa | 0 mm | - | 10 W/m² | - |
| 1777681047 | 15.56° C | 66% | 1019.8 hPa | 0 mm | - | 16 W/m² | - |
| 1777680745 | 15.56° C | 66% | 1019.8 hPa | 0 mm | - | 21 W/m² | - |
| 1777680442 | 15.56° C | 64% | 1019.8 hPa | 0 mm | - | 26 W/m² | - |
| 1777680140 | 16.11° C | 60% | 1019.8 hPa | 0 mm | - | 32 W/m² | - |
| 1777679835 | 16.11° C | 58% | 1019.5 hPa | 0 mm | - | 35 W/m² | - |
| 1777679531 | 16.11° C | 55% | 1019.5 hPa | 0 mm | - | 48 W/m² | - |
| 1777679228 | 16.11° C | 54% | 1019.3 hPa | 0 mm | - | 54 W/m² | - |
| 1777678925 | 16.11° C | 53% | 1019.4 hPa | 0 mm | - | 52 W/m² | - |
| 1777678623 | 16.11° C | 56% | 1019.3 hPa | 0 mm | - | 53 W/m² | - |
| 1777678320 | 16.67° C | 52% | 1019.4 hPa | 0 mm | - | 63 W/m² | - |
| 1777678015 | 16.67° C | 51% | 1019.4 hPa | 0 mm | - | 65 W/m² | - |
| 1777677713 | 16.67° C | 50% | 1019.4 hPa | 0 mm | - | 70 W/m² | - |
| 1777677411 | 16.67° C | 50% | 1019.1 hPa | 0 mm | - | 66 W/m² | - |
| 1777677109 | 16.67° C | 48% | 1018.9 hPa | 0 mm | - | 72 W/m² | - |
| 1777676807 | 16.67° C | 48% | 1019.2 hPa | 0 mm | - | 62 W/m² | - |
| 1777676505 | 17.22° C | 47% | 1018.8 hPa | 0 mm | - | 81 W/m² | - |
| 1777676202 | 17.22° C | 50% | 1018.9 hPa | 0 mm | - | 79 W/m² | - |
* Rain latest hour (hover to see other rain measurements)
** Current wind speed in m/s (hover to see current wind gust speed)